class="group-blog masthead-fixed full-width wpb-js-composer js-comp-ver-5.4.5 vc_responsive"
KRVN Radio Lexington, Nebraska Weather Forecast | AerisWeather

40.78084, -99.7415

Hourly Observations for January 13, 2018

Temp ( °F °C ) Dew Point ( °F °C ) Humidity (%) Winds ( mph kmh ) Pressure ( in mb ) Visibility ( mi km ) Precip ( " mm )
12:15 am 00:15 Clear 11 -12 2 -17 67 S 9 15 30.68 1039 10 16 0.00 0.00
12:35 am 00:35 Clear 11 -12 2 -17 67 S 9 15 30.65 1038 10 16 0.00 0.00
12:55 am 00:55 Clear 11 -12 2 -17 67 SSW 8 13 30.65 1038 10 16 0.00 0.00
1:15 am 01:15 Clear 11 -11 1 -17 64 SSW 7 11 30.65 1038 10 16 0.00 0.00
1:35 am 01:35 Clear 11 -12 1 -17 66 SSW 8 13 30.65 1038 10 16 0.00 0.00
1:55 am 01:55 Clear 11 -12 1 -17 65 SSW 8 13 30.62 1037 10 16 0.00 0.00
2:15 am 02:15 Clear 11 -12 1 -17 65 SSW 8 13 30.62 1037 10 16 0.00 0.00
2:35 am 02:35 Clear 12 -11 1 -17 60 SSW 7 11 30.62 1037 10 16 0.00 0.00
2:55 am 02:55 Clear 12 -11 1 -17 60 SSW 13 20 30.62 1037 10 16 0.00 0.00
3:15 am 03:15 Clear 12 -11 0 -18 58 SSW 9 15 30.62 1037 10 16 0.00 0.00
3:35 am 03:35 Clear 12 -11 0 -18 57 S 9 15 30.62 1037 10 16 0.00 0.00
3:55 am 03:55 Clear 12 -11 -1 -18 58 SSW 10 17 30.62 1037 10 16 0.00 0.00
4:15 am 04:15 Clear 11 -11 -1 -18 57 SSW 13 20 30.62 1037 10 16 0.00 0.00
4:35 am 04:35 Clear 11 -12 -1 -18 58 SSW 8 13 30.62 1037 10 16 0.00 0.00
4:55 am 04:55 Clear 11 -12 -1 -18 60 SSW 6 9 30.62 1037 10 16 0.00 0.00
5:15 am 05:15 Clear 11 -12 -1 -18 59 SSW 6 9 30.62 1037 10 16 0.00 0.00
5:35 am 05:35 Clear 10 -12 -1 -18 63 SSW 5 7 30.62 1037 10 16 0.00 0.00
5:55 am 05:55 Clear 10 -12 -1 -18 62 SSW 6 9 30.62 1037 10 16 0.00 0.00
6:15 am 06:15 Clear 10 -12 0 -18 62 SSW 7 11 30.59 1036 10 16 0.00 0.00
6:35 am 06:35 Clear 10 -12 0 -18 64 SSW 7 11 30.59 1036 10 16 0.00 0.00
6:55 am 06:55 Clear 10 -12 -1 -18 63 SSW 6 9 30.59 1036 10 16 0.00 0.00
7:15 am 07:15 Clear 10 -12 0 -18 64 SSW 8 13 30.59 1036 10 16 0.00 0.00
7:35 am 07:35 Clear 9 -13 -1 -18 64 SSW 7 11 30.59 1036 10 16 0.00 0.00
7:55 am 07:55 Clear 9 -13 0 -18 66 SW 3 6 30.59 1036 10 16 0.00 0.00
8:15 am 08:15 Sunny 9 -13 0 -18 68 Calm 30.59 1036 10 16 0.00 0.00
8:35 am 08:35 Sunny 10 -12 0 -18 63 Calm 30.59 1036 10 16 0.00 0.00
8:55 am 08:55 Sunny 11 -12 1 -17 62 Calm 30.59 1036 10 16 0.00 0.00
9:15 am 09:15 Sunny 13 -11 2 -17 61 Calm 30.59 1036 10 16 0.00 0.00
9:35 am 09:35 Sunny 15 -10 2 -16 58 Calm 30.56 1035 10 16 0.00 0.00
9:55 am 09:55 Sunny 16 -9 3 -16 57 SSW 5 7 30.59 1036 10 16 0.00 0.00
10:15 am 10:15 Sunny 18 -8 4 -15 54 SW 7 11 30.59 1036 10 16 0.00 0.00
10:35 am 10:35 Sunny 19 -7 5 -15 54 SW 6 9 30.56 1035 10 16 0.00 0.00
10:55 am 10:55 Sunny 21 -6 7 -14 55 SW 8 13 30.53 1034 10 16 0.00 0.00
11:15 am 11:15 Sunny 22 -5 8 -13 55 WSW 7 11 30.53 1034 10 16 0.00 0.00
11:35 am 11:35 Sunny 24 -5 9 -13 53 WSW 6 9 30.50 1033 10 16 0.00 0.00
11:55 am 11:55 Sunny 26 -4 10 -12 52 SW 5 7 30.50 1033 10 16 0.00 0.00
12:15 pm 12:15 Sunny 27 -3 11 -12 51 W 5 7 30.50 1033 10 16 0.00 0.00
12:35 pm 12:35 Sunny 29 -2 12 -11 50 SW 3 6 30.45 1031 10 16 0.00 0.00
12:55 pm 12:55 Sunny 31 -1 13 -10 49 SW 5 7 30.45 1031 10 16 0.00 0.00
1:15 pm 13:15 Sunny 32 0 15 -10 48 S 5 7 30.45 1031 10 16 0.00 0.00
1:35 pm 13:35 Sunny 33 1 15 -9 49 SSW 6 9 30.39 1029 10 16 0.00 0.00
1:55 pm 13:55 Sunny 33 1 15 -9 48 SSW 5 7 30.39 1029 10 16 0.00 0.00
2:15 pm 14:15 Sunny 35 2 16 -9 46 SSW 7 11 30.39 1029 10 16 0.00 0.00
2:35 pm 14:35 Sunny 36 2 17 -8 46 SW 6 9 30.39 1029 10 16 0.00 0.00
2:55 pm 14:55 Sunny 37 3 17 -8 45 SSW 5 7 30.39 1029 10 16 0.00 0.00
3:15 pm 15:15 Sunny 38 3 17 -8 44 SSW 5 7 30.39 1029 10 16 0.00 0.00
3:35 pm 15:35 Sunny 38 3 18 -8 44 SW 6 9 30.33 1027 10 16 0.00 0.00
3:55 pm 15:55 Sunny 38 3 17 -8 42 SSW 7 11 30.33 1027 10 16 0.00 0.00
4:15 pm 16:15 Sunny 38 3 17 -8 43 SSW 7 11 30.36 1028 10 16 0.00 0.00
4:35 pm 16:35 Sunny 38 3 19 -7 46 SSW 7 11 30.33 1027 10 16 0.00 0.00
4:55 pm 16:55 Sunny 37 3 19 -7 47 SSW 7 11 30.36 1028 10 16 0.00 0.00
5:15 pm 17:15 Sunny 35 2 19 -7 52 S 7 11 30.36 1028 10 16 0.00 0.00
5:35 pm 17:35 Sunny 33 1 18 -8 55 SSW 8 13 30.36 1028 10 16 0.00 0.00
5:55 pm 17:55 Clear 32 0 17 -8 54 SSW 7 11 30.39 1029 10 16 0.00 0.00
6:15 pm 18:15 Clear 31 0 16 -9 54 SSW 7 11 30.39 1029 10 16 0.00 0.00
6:35 pm 18:35 Clear 30 -1 16 -9 55 SSW 6 9 30.42 1030 10 16 0.00 0.00
6:55 pm 18:55 Clear 30 -1 16 -9 55 SSW 6 9 30.42 1030 10 16 0.00 0.00
7:15 pm 19:15 Clear 27 -3 16 -9 65 S 8 13 30.42 1030 10 16 0.00 0.00
7:35 pm 19:35 Clear 28 -2 18 -8 66 S 5 7 30.39 1029 10 16 0.00 0.00
7:55 pm 19:55 Clear 27 -3 18 -8 68 S 6 9 30.39 1029 10 16 0.00 0.00
8:15 pm 20:15 Clear 26 -3 18 -8 71 SSW 6 9 30.42 1030 10 16 0.00 0.00
8:35 pm 20:35 Clear 25 -4 17 -8 72 SSW 7 11 30.42 1030 10 16 0.00 0.00
8:55 pm 20:55 Clear 27 -3 18 -8 69 SSW 8 13 30.36 1028 10 16 0.00 0.00
9:15 pm 21:15 Clear 27 -3 18 -8 68 SSW 8 13 30.36 1028 10 16 0.00 0.00
9:35 pm 21:35 Clear 27 -3 17 -8 67 SSW 9 15 30.36 1028 10 16 0.00 0.00
9:55 pm 21:55 Clear 26 -3 17 -9 68 SW 7 11 30.39 1029 10 16 0.00 0.00
10:15 pm 22:15 Clear 24 -4 15 -9 70 Calm 30.39 1029 10 16 0.00 0.00
10:35 pm 22:35 Clear 20 -7 14 -10 78 Calm 30.42 1030 10 16 0.00 0.00
10:55 pm 22:55 Clear 19 -7 14 -10 81 Calm 30.39 1029 10 16 0.00 0.00
11:15 pm 23:15 Clear 18 -8 13 -10 81 Calm 30.39 1029 10 16 0.00 0.00
11:35 pm 23:35 Clear 17 -8 12 -11 82 Calm 30.39 1029 10 16 0.00 0.00
11:55 pm 23:55 Clear 19 -7 14 -10 79 Calm 30.36 1028 10 16 0.00 0.00